THOR ABLESTAR DEB, 246

Orbit data source: Space-Track

THOR ABLESTAR DEB, 246 is space debris in LEO originally from a launch on Thu, 29 Jun 1961 UTC launched from the Air Force Eastern Test Range (AFETR). Debris objects in space refer to the collection of defunct objects orbiting the Earth. Examples of debris include non-operational satellites, rocket bodies, and fragments generated from explosions, collisions, or faulty payload assembly.

Loading next visibility...
Identifier
246, 1961-015CB
Orbit
LEO
Country
Flag of USUS
Related business
Manufacturer
Unknown
Mission
Spacecraft
Bus & Motor
Unknown
Mass
Unknown
Launch date (UTC)
1961-06-29 (65 years ago)
Launch vehicle
Unknown
Launch site
Air Force Eastern Test Range (AFETR)
Object type
Payload
Rocket body
Debris
Shape & HBR
Unknown shape, 0.2 m
Radar Cross Section
Medium (>0.1 m² and <1 m²)

Expand to show TLE details & history
Last TLE update: 13 hours ago

TLE from 13 hours ago
0 THOR ABLESTAR DEB
1 00246U 61015CB  26106.04941177 -.00000002  00000-0  62213-4 0  9994
2 00246  66.8708 342.0380 0065395 182.8613 177.2100 13.86151286615254
Epoch: 2026-04-16T01:11Z
TLE epoch observation values (Epoch: 2026-04-16T01:11:09.176Z)
Latitude
-0.00001°
Longitude
120.04723°
Altitude
992.047 km
Speed
7.332 km/s
True Right ascension
22h 48m 09s
True Declination
0° 00' 00"
Sunlit
Object was in daylight at epoch
Visualization orbit readout
Latitude
Unknown
Longitude
Unknown
Altitude
Unknown
Speed
Unknown
Apparent Right ascension
Unknown
Apparent Declination
Unknown
Sunlit
N/A
Visualization observer readout
Local Sidereal Time
20:27:12
Azimuth
Unknown
Elevation
Unknown
Doppler factor
Unknown
Orbital elements
Apogee altitude
988.399 km
Perigee altitude
892.678 km
Semi-major axis
7,318.676 km
Eccentricity
0.00654
Inclination
66.8708°
RAAN
342.038°
Arg. of periapsis
182.8613°
True anomaly
177.24618°
Mean anomaly
177.21°
Eccentric anomaly
177.22812°
Mean motion
3.46653 °/min
Orbital period
103.85 mins
BSTAR
0.000062213
Loading maneuver chart data...
Computing Atmospheric mass density...
Loading historical data...
Loading historical data...
Loading historical data...
Loading historical data...
Loading historical data...
Loading historical data...
Loading historical data...

Documentation

Showing up to 5 results
|